FALCON 9 DEB (48416 NORAD) Tracking and Keplerian Element Data

This shows tracking and keplerian element data for the satellite.

Feedback or suggestion? Click here.




ElementValue
Catalog48416
NameFALCON 9 DEB
Epoch Orbit432
Epoch Day151.56702667
Epoch Year2021
RAAN264.4487
Inclination53.03
Eccentricity0.0011017
Argument of Perigee293.7779
Mean Anonmoly66.2113
Mean Motion16.42013302
Decay Rate0.06091365
L11 48416U 21038BR 21151.56702667 .06091365 12475-4 29892-3 0 9992
L22 48416 53.0300 264.4487 0011017 293.7779 66.2113 16.42013302 4325

Live tracking and technical data element details for FALCON 9 DEB (NORAD 48416). FALCON 9 DEB can be tracked NOW for your location showing map with azimuth and elevation plus other details from your city location.

Track the satellite on the map from your city or location and see movement details for azimuth, elevation, latitude, longitude, range, height, and movement on the map or in text.







IsCatalogInMostPopularTable: catalog: 48416, numindb: 30
Update: records affected: 1



GetName: 48416 FALCON 9 DEB

Hit Count: updated at: Wed, 04 Aug 2021 00:06:07 GMT